Fort Eustis, VA

10:48 PM EST on November 21, 2019 (GMT -0500)
Felker Army Air Field

Weather History for KFAF - September, 2019

Change the Weather History Date:

Friday, September 13, 2019

  Actual Average Record
Temperature  
Mean Temperature 74 °F -  
Max Temperature 76 °F 79 °F 90 °F (2008)
Min Temperature 71 °F 64 °F 55 °F (2002)
Cooling Degree Days 9    
Growing Degree Days 24 (Base 50)    
Moisture  
Dew Point 66 °F    
Average Humidity 75    
Maximum Humidity 83    
Minimum Humidity 57    
Precipitation  
Precipitation 0.26 in - - ()
Sea Level Pressure  
Sea Level Pressure 30.23 in    
Wind  
Wind Speed 7 mph ()    
Max Wind Speed 14 mph    
Max Gust Speed 26 mph    
Visibility 8.1 miles    
Events Rain , Thunderstorm    
Averages and records for this station are not official NWS values.
T = Trace of Precipitation, MM = Missing Value Source: Averaged Metar Reports

Daily Weather History Graph

Daily Weather History Graph

Search for Another Location

Airport or City:

Astronomy

Sep. 13, 2019 Rise Set
Actual Time 6:46 AM EDT 7:17 PM EDT
Civil Twilight 6:20 AM EDT 7:43 PM EDT
Nautical Twilight 5:49 AM EDT 8:14 PM EDT
Astronomical Twilight 5:18 AM EDT 8:45 PM EDT
Moon 7:28 PM EDT (9/13) 6:03 AM EDT (9/13)
Length of Visible Light 13h 23m
Length of Day
12h 30m
Full, 100% of the Moon is Illuminated
Sep 13
Full
Sep 14
Full
Sep 21
Last Quarter
Sep 28
New
Oct 5
First Quarter

Hourly Weather History & Observations

Time (EDT) Temp. Dew Point Humidity Pressure Visibility Wind Dir Wind Speed Gust Speed Precip Events Conditions
12:06 AM 77.0 °F 68.0 °F 74% 30.12 in 1.0 mi North 12.7 mph 25.3 mph N/A Rain , Thunderstorm Heavy Thunderstorms and Rain
12:16 AM 77.0 °F 68.0 °F 74% 30.10 in 0.8 mi NW 4.6 mph 26.5 mph N/A Rain , Thunderstorm Heavy Thunderstorms and Rain
12:21 AM 77.0 °F 66.2 °F 69% 30.09 in 2.5 mi South 6.9 mph - N/A Rain , Thunderstorm Light Thunderstorms and Rain
12:31 AM 75.2 °F 66.2 °F 73% 30.10 in 10.0 mi ENE 4.6 mph - N/A Rain , Thunderstorm Light Thunderstorms and Rain
12:40 AM 75.2 °F 68.0 °F 78% 30.11 in 10.0 mi East 9.2 mph - N/A Rain Light Rain
12:43 AM 75.2 °F 68.0 °F 78% 30.11 in 10.0 mi East 4.6 mph - N/A Rain , Thunderstorm Light Thunderstorms and Rain
12:56 AM 75.6 °F 68.2 °F 78% 30.11 in 10.0 mi NE 6.9 mph - 0.23 in Rain Light Rain
12:59 AM 75.2 °F 68.0 °F 78% 30.11 in 10.0 mi NE 6.9 mph - N/A Rain Light Rain
1:02 AM 75.2 °F 68.0 °F 78% 30.11 in 10.0 mi NE 6.9 mph - N/A   Scattered Clouds
1:56 AM 75.6 °F 68.9 °F 80% 30.13 in 10.0 mi NE 3.5 mph - 0.01 in   Mostly Cloudy
2:56 AM 75.2 °F 68.5 °F 80% 30.14 in 10.0 mi Calm Calm - N/A   Mostly Cloudy
3:56 AM 75.7 °F 69.4 °F 81% 30.14 in 10.0 mi East 4.6 mph - N/A   Mostly Cloudy
4:16 AM 75.2 °F 69.8 °F 83% 30.15 in 10.0 mi ENE 6.9 mph - N/A   Overcast
4:46 AM 75.2 °F 69.8 °F 83% 30.16 in 10.0 mi ENE 5.8 mph - N/A   Mostly Cloudy
4:56 AM 75.7 °F 69.4 °F 81% 30.16 in 10.0 mi NE 6.9 mph - N/A   Mostly Cloudy
5:51 AM 75.2 °F 69.8 °F 83% 30.18 in 9.0 mi East 5.8 mph - N/A   Light Drizzle
5:56 AM 75.4 °F 68.7 °F 80% 30.18 in 8.0 mi East 5.8 mph - 0.00 in   Light Drizzle
6:06 AM 75.2 °F 69.8 °F 83% 30.19 in 6.0 mi East 5.8 mph - N/A   Light Drizzle
6:38 AM 75.2 °F 68.0 °F 78% 30.19 in 10.0 mi East 5.8 mph - N/A   Overcast
6:56 AM 74.5 °F 68.5 °F 82% 30.20 in 9.0 mi ENE 8.1 mph - 0.01 in   Overcast
7:21 AM 73.4 °F 68.0 °F 83% 30.21 in 4.0 mi ENE 6.9 mph - N/A   Light Drizzle
7:42 AM 73.4 °F 68.0 °F 83% 30.22 in 4.0 mi ENE 8.1 mph - N/A   Overcast
7:56 AM 73.4 °F 67.5 °F 82% 30.22 in 5.0 mi ENE 11.5 mph - 0.00 in   Overcast
8:06 AM 73.4 °F 68.0 °F 83% 30.23 in 8.0 mi ENE 8.1 mph - N/A   Overcast
8:16 AM 73.4 °F 68.0 °F 83% 30.23 in 2.0 mi East 8.1 mph - N/A   Overcast
8:26 AM 73.4 °F 68.0 °F 83% 30.23 in 4.0 mi East 9.2 mph - N/A   Overcast
8:56 AM 72.7 °F 66.7 °F 82% 30.25 in 4.0 mi ENE 6.9 mph - 0.01 in   Overcast
9:06 AM 73.4 °F 66.2 °F 78% 30.25 in 4.0 mi East 10.4 mph - N/A   Overcast
9:36 AM 73.4 °F 66.2 °F 78% 30.26 in 10.0 mi ENE 10.4 mph - N/A   Mostly Cloudy
9:56 AM 73.0 °F 66.4 °F 80% 30.27 in 10.0 mi East 8.1 mph - N/A   Overcast
10:16 AM 73.4 °F 66.2 °F 78% 30.28 in 7.0 mi East 11.5 mph - N/A   Overcast
10:54 AM 73.4 °F 66.2 °F 78% 30.29 in 6.0 mi ENE 10.4 mph - N/A   Light Drizzle
10:56 AM 72.5 °F 65.7 °F 79% 30.29 in 6.0 mi ENE 12.7 mph - 0.00 in   Light Drizzle
11:03 AM 71.6 °F 66.2 °F 83% 30.29 in 8.0 mi East 10.4 mph - N/A   Overcast
11:43 AM 73.4 °F 66.2 °F 78% 30.30 in 7.0 mi East 8.1 mph 18.4 mph N/A   Overcast
11:53 AM 73.4 °F 66.2 °F 78% 30.30 in 9.0 mi ENE 9.2 mph - N/A   Mostly Cloudy
11:56 AM 73.0 °F 65.7 °F 78% 30.30 in 10.0 mi East 11.5 mph - 0.00 in   Mostly Cloudy
12:06 PM 73.4 °F 66.2 °F 78% 30.30 in 10.0 mi East 9.2 mph 17.3 mph N/A   Mostly Cloudy
12:26 PM 73.4 °F 64.4 °F 73% 30.30 in 8.0 mi East 11.5 mph 17.3 mph N/A   Overcast
12:56 PM 72.7 °F 63.9 °F 74% 30.31 in 8.0 mi East 9.2 mph - N/A   Overcast
1:56 PM 74.3 °F 61.7 °F 65% 30.32 in 10.0 mi East 11.5 mph 18.4 mph N/A   Overcast
3:56 PM 75.4 °F 59.5 °F 58% 30.30 in 10.0 mi East 10.4 mph - N/A   Overcast
4:56 PM 75.2 °F 58.8 °F 57% 30.30 in 10.0 mi East 11.5 mph - N/A   Mostly Cloudy
5:56 PM 74.5 °F 60.1 °F 61% 30.31 in 10.0 mi East 8.1 mph - N/A   Overcast
6:33 PM 73.4 °F 62.6 °F 69% 30.30 in 10.0 mi ENE 13.8 mph - N/A   Overcast
6:56 PM 73.2 °F 61.5 °F 67% 30.30 in 10.0 mi East 8.1 mph - N/A   Overcast
7:56 PM 73.0 °F 60.1 °F 64% 30.30 in 10.0 mi East 8.1 mph - N/A   Overcast
8:41 PM 73.4 °F 59.0 °F 61% 30.31 in 10.0 mi East 11.5 mph - N/A   Mostly Cloudy
8:56 PM 72.3 °F 59.4 °F 64% 30.32 in 10.0 mi East 8.1 mph - N/A   Mostly Cloudy
9:55 PM 72.1 °F 59.2 °F 64% 30.32 in 10.0 mi East 5.8 mph - N/A   Mostly Cloudy
10:56 PM 72.5 °F 59.5 °F 64% 30.32 in 10.0 mi East 4.6 mph - N/A   Overcast
11:56 PM 72.5 °F 60.1 °F 65% 30.30 in 10.0 mi ENE 6.9 mph - N/A   Overcast